Погода в Полтавке

Россия / Республика Крым     45°20′57″N   34°11′14″E
темп.,
°C
ветер,
м/с
пор.,
м/с
влажн.,
%
обл.,
%
осадки,
мм/ч
давл.,
гПа
погр.,
м
22 января, пт
пт2200:00+3ююз5118831 0.0 1026201
03:00+3ююз5118722 0.0 1025196
06:00+3ю47863 0.0 1024102
09:00+3ю47857 0.0 1024104
12:00+6ююз4129143 0.0 1024489
15:00+7ююз5128246 0.0 1022475
18:00+4ю458355 0.0 102284
21:00+4ю588366 0.0 1021134
23 января, сб
сб2300:00+5ю588467 0.0 1021134
03:00+5ю5118078 0.0 1020198
06:00+5ю487896 0.0 1020135
09:00+5ю5117690 0.0 1019188
12:00+10ююз5136994 0.0 1019695
15:00+12ююз6126889 0.0 1018902
18:00+8ю497560 0.0 1017186
21:00+7ююв477672 0.0 101796
24 января, вс
вс2400:00+7ююв467699 0.0 101787
03:00+6ююв347683 0.0 101660
06:00+6ю2368100 0.0 101435
09:00+6юв466399 0.0 101499
12:00+11ю4756100 0.0 1013217
15:00+12юз51055100 0.0 10121059
18:00+9ююв51174100 0.1 1012340
21:00+9ю51473100 0.1 1013524
25 января, пн
пн2500:00+9ююв61272100 0.2 1012348
03:00+9ю6126698 0.2 1012262
06:00+8ююв5117096 0.0 1011197
09:00+9ююв5117198 0.0 1011165
12:00+11ююв3668100 0.0 1010241
15:00+12юв6961100 0.0 1008485
18:00+10ююв51070100 0.0 1006355
21:00+10ю10187999 0.9 1005843
26 января, вт
вт2600:00+10ю8187133 0.1 1005839
03:00+9ююз7167717 0.1 1006670
06:00+8ю7167632 0.0 1005512
09:00+6з8129163 2.8 1006649
12:00+7юз111669100 2.6 10081364
15:00+7зюз10136583 2.6 10111122
18:00+5юз5107335 0.0 1013558
21:00+4юз498068 0.0 1015358